Regional Weather Roundup
Issued by NWS Columbia, SC

Home | Current Version | Previous Version | Text Only | Print | Product List | Glossary On
Versions: 1 2 3 4 5 6 7 8 9 10 11 12 13 14 15 16 17 18 19 20 21 22 23 24 25 26 27
000
ASUS42 KCAE 171510
RWRCAE
REGIONAL WEATHER ROUNDUP
NATIONAL WEATHER SERVICE COLUMBIA SC
1100 AM EDT THU APR 17 2014

NOTE: "FAIR" INDICATES FEW OR NO CLOUDS BELOW 12,000 FEET WITH NO
SIGNIFICANT WEATHER AND/OR OBSTRUCTIONS TO VISIBILITY.

NOT ALL STATIONS ARE QUALITY CONTROLLED BY THE NATIONAL
WEATHER SERVICE. USE DATA WITH CAUTION...ESPECIALLY
DEWPOINT OBSERVATIONS.

SCZ001>056-GAZ040-063>065-077-171600-
...UPSTATE SOUTH CAROLINA...

CITY           SKY/WX    TMP DP  RH WIND       PRES   REMARKS
ANDERSON       SUNNY     51  29  42 E12       30.50S
LIBERTY        FAIR      50  32  49 MISG      30.49S
SPARTANBURG    FAIR      52  32  46 NE13      30.52R
CLEMSON        SUNNY     52  27  38 NE12G22   30.51R
GREENVILLE     SUNNY     52  27  38 NE13G21   30.51R
GREENWOOD      SUNNY     52  29  41 NE13G18   30.51S
GREER          SUNNY     50  30  46 E14       30.50R
ROCK HILL      SUNNY     50  25  37 NE13G20   30.52S
CHESTER        FAIR      54  32  43 NE15G23   30.52F


...CENTRAL SOUTH CAROLINA...

CITY           SKY/WX    TMP DP  RH WIND       PRES   REMARKS
COLUMBIA APT   MOSUNNY   54  18  24 NE10G21   30.49S
COLUMBIA OWENS SUNNY     53  21  28 NE9       30.51S
DARLINGTON     SUNNY     52  30  43 NE13      30.53R
FLORENCE       SUNNY     53  35  50 NE10      30.50S
MCENTIRE ANGB  PTSUNNY   53  26  35 NE10      30.50S
ORANGEBURG     MOSUNNY   52  29  41 NE12      30.48R
SUMTER SHAW    MOSUNNY   51  30  44 N12G21    30.48S
NEWBERRY       FAIR      50  30  46 E9G17     30.53S
AIKEN          FAIR      52  32  46 NE14G23   30.49S
BARNWELL       FAIR      54  25  32 NE12G18   30.47R
MANNING        FAIR      52  37  58 N10       30.49R
CAMDEN         FAIR      50  27  40 NE8       30.52S
LANCASTER      FAIR      48  25  40 NE8G17    30.52S
WINNSBORO      FAIR      52  25  35 NE12      30.51R


...EASTERN AND COASTAL SOUTH CAROLINA...

CITY           SKY/WX    TMP DP  RH WIND       PRES   REMARKS
MYRTLE BEACH   SUNNY     52  39  62 N12       30.47R
N MYRTLE BCH   MOSUNNY   56  40  55 NE10      30.47R
CONWAY         FAIR      52  39  62 N7        30.49R
MARION         FAIR      52  36  54 NE10      30.51R
HARTSVILLE     FAIR      52  27  37 NE12      30.52R
FLORENCE       SUNNY     53  35  50 NE10      30.50S
DARLINGTON     SUNNY     52  30  43 NE13      30.53R
CHARLESTON APT MOSUNNY   56  39  53 NE10      30.45S
MOUNT PLEASANT FAIR     N/A N/A N/A N7        30.45S
WALTERBORO     MOSUNNY   55  41  58 NE8       30.46R
BEAUFORT       MOSUNNY   58  41  53 E9        30.44R


...EASTERN GEORGIA...

CITY           SKY/WX    TMP DP  RH WIND       PRES   REMARKS
AUGUSTA BUSH F SUNNY     55  27  34 E9        30.47R
AUGUSTA DANIEL SUNNY     55  31  39 NE14      30.47R
THOMSON        SUNNY     52  37  58 NE13      30.51S
WASHINGTON     FAIR      54  34  47 NE10G18   30.47S
CLAXTON        PTSUNNY   59  37  44 NE10      30.43R
SYLVANIA       PTSUNNY   57  32  38 NE10      30.45R
STATESBORO     PTSUNNY   54  25  32 E7        30.44R
SAVANNAH       MOSUNNY   59  42  53 NE13      30.43R


...SOUTHERN NORTH CAROLINA...

CITY           SKY/WX    TMP DP  RH WIND       PRES   REMARKS
CHARLOTTE      MOSUNNY   50  28  42 NE12G20   30.54S
MONROE         SUNNY     49  28  44 NE15      30.52S
WADESBORO      MOSUNNY   51  27  38 NE9       30.54S
ROCKINGHAM       N/A     51  31  44 N7        30.52S
RUTHERFORDTON  SUNNY     50  29  44 E3        30.53F
ASHEVILLE      MOSUNNY   46  28  49 S9        30.48S

$$



USA.gov is the U.S. government's official web portal to all federal, state and local government web resources and services.